Time,TemperatureF,DewpointF,PressureIn,WindDirection,WindDirectionDegrees,WindSpeedMPH,WindSpeedGustMPH,Humidity,HourlyPrecipIn,Conditions,Clouds,dailyrainin,SoftwareType,DateUTC
2013-07-08 00:02:00,74.0,-99.9,-100.00,North,350,0.0,1.0,-999,0.00,,,-99.99,,2013-07-08 04:02:00,
2013-07-08 00:12:00,74.0,-99.9,-100.00,West,280,0.0,1.0,-999,0.00,,,-99.99,,2013-07-08 04:12:00,
2013-07-08 01:12:00,74.0,74.0,-100.00,NW,315,0.0,1.0,99,0.00,,,-99.99,,2013-07-08 05:12:00,
2013-07-08 02:12:00,73.0,73.0,-100.00,NW,315,0.0,2.0,99,0.00,,,-99.99,,2013-07-08 06:12:00,
2013-07-08 03:02:00,73.0,73.0,-100.00,North,-999,-999.0,-999.0,99,0.00,,,-99.99,,2013-07-08 07:02:00,
2013-07-08 04:12:00,72.0,72.0,-100.00,WSW,245,0.0,1.0,99,0.00,,,-99.99,,2013-07-08 08:12:00,
2013-07-08 05:12:00,72.0,-99.9,-100.00,West,260,0.0,1.0,-999,0.00,,,-99.99,,2013-07-08 09:12:00,
2013-07-08 05:22:00,72.0,72.0,-100.00,South,170,0.0,1.0,99,0.00,,,-99.99,,2013-07-08 09:22:00,
2013-07-08 06:11:00,73.0,73.0,-100.00,SSW,200,0.0,4.0,99,0.00,,,-99.99,,2013-07-08 10:11:00,
2013-07-08 07:23:00,74.0,74.0,-100.00,WNW,300,1.0,4.0,99,0.00,,,-99.99,,2013-07-08 11:23:00,
2013-07-08 07:43:00,74.0,74.0,-100.00,West,275,1.0,2.0,99,0.00,,,-99.99,,2013-07-08 11:43:00,
2013-07-08 08:12:00,75.0,-99.9,-100.00,NNW,330,2.0,6.0,-999,0.00,,,-99.99,,2013-07-08 12:12:00,
2013-07-08 08:22:00,75.0,75.0,-100.00,North,0,1.0,3.0,99,0.00,,,-99.99,,2013-07-08 12:22:00,
2013-07-08 08:34:00,76.0,-99.9,-100.00,WNW,285,2.0,6.0,-999,0.00,,,-99.99,,2013-07-08 12:34:00,
2013-07-08 09:22:00,78.0,76.0,-100.00,North,350,1.0,4.0,94,0.00,,,-99.99,,2013-07-08 13:22:00,
2013-07-08 09:33:00,78.0,75.0,-100.00,ENE,75,1.0,3.0,91,0.00,,,-99.99,,2013-07-08 13:33:00,
2013-07-08 10:02:00,77.0,74.0,-100.00,West,265,1.0,4.0,89,0.00,,,-99.99,,2013-07-08 14:02:00,
2013-07-08 10:12:00,78.0,74.0,-100.00,NE,45,1.0,6.0,88,0.00,,,-99.99,,2013-07-08 14:12:00,
2013-07-08 10:23:00,77.0,74.0,-100.00,South,180,1.0,3.0,89,0.00,,,-99.99,,2013-07-08 14:23:00,
2013-07-08 10:43:00,78.0,74.0,-100.00,North,350,1.0,2.0,88,0.00,,,-99.99,,2013-07-08 14:43:00,
2013-07-08 11:11:00,78.0,73.0,-100.00,ENE,60,1.0,4.0,84,0.00,,,-99.99,,2013-07-08 15:11:00,
2013-07-08 11:22:00,80.0,74.0,-100.00,WNW,295,1.0,4.0,82,0.00,,,-99.99,,2013-07-08 15:22:00,
2013-07-08 11:33:00,79.0,73.0,-100.00,North,-999,-999.0,-999.0,82,-99.99,,,-99.99,,2013-07-08 15:33:00,
2013-07-08 11:43:00,80.0,73.0,-100.00,WNW,285,3.0,6.0,80,0.00,,,-99.99,,2013-07-08 15:43:00,
2013-07-08 12:11:00,82.0,73.0,-100.00,North,0,1.0,4.0,72,0.00,,,-99.99,,2013-07-08 16:11:00,
2013-07-08 12:33:00,82.0,71.0,-100.00,West,280,2.0,4.0,68,0.00,,,-99.99,,2013-07-08 16:33:00,
2013-07-08 13:29:00,81.0,74.0,-100.00,North,355,2.0,3.0,78,0.00,,,-99.99,,2013-07-08 17:29:00,
2013-07-08 13:54:00,86.0,74.0,-100.00,NNW,340,1.0,4.0,66,0.00,,,-99.99,,2013-07-08 17:54:00,
2013-07-08 16:23:00,78.0,74.0,-100.00,East,85,1.0,7.0,88,0.00,,,-99.99,,2013-07-08 20:23:00,
2013-07-08 16:32:00,78.0,74.0,-100.00,East,85,1.0,7.0,88,0.00,,,-99.99,,2013-07-08 20:32:00,
2013-07-08 16:46:00,75.0,73.0,-100.00,East,90,1.0,4.0,92,0.13,,,-99.99,,2013-07-08 20:46:00,
2013-07-08 17:01:00,74.0,73.0,-100.00,East,80,2.0,3.0,96,0.21,,,-99.99,,2013-07-08 21:01:00,
2013-07-08 19:17:00,70.0,70.0,-100.00,NE,45,1.0,3.0,99,0.55,,,-99.99,,2013-07-08 23:17:00,
2013-07-08 19:33:00,70.0,70.0,-100.00,SSW,200,0.0,3.0,99,0.01,,,-99.99,,2013-07-08 23:33:00,
2013-07-08 20:28:00,69.0,-99.9,-100.00,SE,145,1.0,3.0,-999,0.00,,,-99.99,,2013-07-09 00:28:00,
2013-07-08 21:35:00,67.0,67.0,-100.00,SE,145,2.0,3.0,99,0.00,,,-99.99,,2013-07-09 01:35:00,
2013-07-08 22:11:00,67.0,67.0,-100.00,SE,140,2.0,4.0,99,0.01,,,-99.99,,2013-07-09 02:11:00,
2013-07-08 22:32:00,67.0,67.0,-100.00,East,95,1.0,4.0,99,0.00,,,-99.99,,2013-07-09 02:32:00,
2013-07-08 22:55:00,67.0,67.0,-100.00,SSE,165,1.0,1.0,99,0.00,,,-99.99,,2013-07-09 02:55:00,
2013-07-08 23:25:00,67.0,67.0,-100.00,SSE,160,1.0,2.0,99,0.00,,,-99.99,,2013-07-09 03:25:00,